Powrót do katalogu

OPS 6432

AktywnyNawigacjaLEO
NORAD 14112·PAYLOAD·🇺🇸 United States

Wystrzelony Jun 9, 1983 z Vandenberg Space Force Base

Loading…

Następne Przeloty (najbliższe 24 godziny)

TLE

ŚwieżeSource: Space-Track

Epoka: Sep 14, 2026, 08:57 UTC

1 14112U 83056A   26257.37313881  .00001484  00000-0  18828-3 0  9994
2 14112  63.3046 278.7267 0680168 134.8998 230.9380 13.89770932120695

Śledź OPS 6432 w czasie rzeczywistym z AllMySat

Download on the App Store